Carmi, IL

3:04 AM CDT on September 21, 2017 (GMT -0500)
Carmi Municipal

Weather History for KCUL - August, 2014

Change the Weather History Date:

Tuesday, August 26, 2014

  Actual Average (KEHR) Record (KEHR)
Temperature  
Mean Temperature 82 °F -  
Max Temperature 93 °F 88 °F 104 °F (1943)
Min Temperature 71 °F 64 °F 47 °F (1945)
Cooling Degree Days 17    
Growing Degree Days 32 (Base 50)    
Moisture  
Dew Point 76 °F    
Average Humidity 87    
Maximum Humidity 100    
Minimum Humidity 56    
Precipitation  
Precipitation 0.00 in - - ()
Sea Level Pressure  
Sea Level Pressure 30.07 in    
Wind  
Wind Speed 1 mph (North)    
Max Wind Speed 6 mph    
Max Gust Speed -    
Visibility 5 miles    
Events Fog    
Averages and records for this station are not official NWS values.
T = Trace of Precipitation, MM = Missing Value Source: NWS Daily Summary

Daily Weather History Graph

Daily Weather History Graph

Search for Another Location

Airport or City:

Trip Planner

Search our weather history database for the weather conditions in past years. The results will help you decide how hot, cold, wet, or windy it might be!

Date:

Astronomy

Aug. 26, 2014 Rise Set
Actual Time 6:17 AM CDT 7:30 PM CDT
Civil Twilight 5:49 AM CDT 7:58 PM CDT
Nautical Twilight 5:17 AM CDT 8:30 PM CDT
Astronomical Twilight 4:42 AM CDT 9:04 PM CDT
Moon 7:15 AM CDT (8/26) 7:54 PM CDT (8/26)
Length of Visible Light 14h 08m
Length of Day
13h 13m
New Moon, 1% of the Moon is Illuminated
Aug 26
New Moon
Sep 2
First Quarter
Sep 8
Full
Sep 15
Last Quarter
Sep 24
New

Hourly Weather History & Observations

Time (CDT) Temp. Heat Index Dew Point Humidity Pressure Visibility Wind Dir Wind Speed Gust Speed Precip Events Conditions
12:15 AM 75.2 °F - 75.2 °F 100% 30.05 in 5.0 mi Calm Calm - N/A   Clear
12:37 AM 75.2 °F - 75.2 °F 100% 30.03 in 3.0 mi Calm Calm - N/A   Clear
12:55 AM 75.2 °F - 75.2 °F 100% 30.04 in 4.0 mi Calm Calm - N/A   Clear
1:15 AM 75.2 °F - 75.2 °F 100% 30.04 in 4.0 mi North 3.5 mph - N/A   Clear
1:55 AM 75.2 °F - 75.2 °F 100% 30.03 in 3.0 mi Calm Calm - N/A   Clear
2:15 AM 75.2 °F - 75.2 °F 100% 30.03 in 3.0 mi Calm Calm - N/A   Clear
2:35 AM 75.2 °F - 73.4 °F 94% 30.03 in 3.0 mi Calm Calm - N/A   Clear
2:57 AM 73.4 °F - 73.4 °F 100% 30.02 in 3.0 mi Calm Calm - N/A   Clear
3:15 AM 73.4 °F - 73.4 °F 100% 30.02 in 3.0 mi Calm Calm - N/A   Clear
3:35 AM 73.4 °F - 73.4 °F 100% 30.03 in 1.0 mi Calm Calm - N/A   Mist
3:55 AM 73.4 °F - 73.4 °F 100% 30.03 in 1.0 mi Calm Calm - N/A   Mist
4:17 AM 73.4 °F - 73.4 °F 100% 30.02 in 1.0 mi Calm Calm - N/A   Mist
4:35 AM 73.4 °F - 73.4 °F 100% 30.03 in 0.5 mi Calm Calm - N/A Fog Fog
4:57 AM 73.4 °F - 71.6 °F 94% 30.04 in 0.2 mi Calm Calm - N/A Fog Fog
5:15 AM 73.4 °F - 71.6 °F 94% 30.05 in 0.2 mi Calm Calm - N/A Fog Fog
5:35 AM 71.6 °F - 71.6 °F 100% 30.06 in 2.5 mi Calm Calm - N/A   Clear
5:55 AM 71.6 °F - 71.6 °F 100% 30.07 in 1.2 mi Calm Calm - N/A   Mist
6:15 AM 71.6 °F - 71.6 °F 100% 30.08 in 0.5 mi Calm Calm - N/A Fog Fog
6:35 AM 73.4 °F - 71.6 °F 94% 30.08 in 0.5 mi Calm Calm - N/A   Overcast
6:56 AM 73.4 °F - 73.4 °F 100% 30.09 in 0.2 mi Calm Calm - N/A Fog Fog
7:15 AM 73.4 °F - 73.4 °F 100% 30.10 in 1.2 mi Calm Calm - N/A   Scattered Clouds
7:37 AM 75.2 °F - 75.2 °F 100% 30.11 in 1.5 mi Calm Calm - N/A   Mist
7:57 AM 77.0 °F - 77.0 °F 100% 30.11 in 1.8 mi Calm Calm - N/A   Mist
8:15 AM 78.8 °F - 78.8 °F 100% 30.12 in 1.8 mi ENE 3.5 mph - N/A   Mist
8:55 AM 80.6 °F 88.1 °F 78.8 °F 94% 30.12 in 4.0 mi Calm Calm - N/A   Clear
9:55 AM 87.8 °F 104.9 °F 80.6 °F 79% 30.12 in 7.0 mi Calm Calm - N/A   Clear
10:17 AM 87.8 °F 102.5 °F 78.8 °F 75% 30.11 in 7.0 mi Calm Calm - N/A   Clear
10:35 AM 89.6 °F 104.7 °F 78.8 °F 70% 30.11 in 7.0 mi Calm Calm - N/A   Clear
11:16 AM 89.6 °F 104.7 °F 78.8 °F 70% 30.10 in 7.0 mi NW 3.5 mph - N/A   Mostly Cloudy
11:37 AM 89.6 °F 102.2 °F 77.0 °F 66% 30.10 in 10.0 mi Calm Calm - N/A   Scattered Clouds
11:55 AM 91.4 °F 105.1 °F 77.0 °F 63% 30.10 in 10.0 mi NNW 3.5 mph - N/A   Scattered Clouds
12:15 PM 91.4 °F 105.1 °F 77.0 °F 63% 30.10 in 10.0 mi Calm Calm - N/A   Scattered Clouds
12:35 PM 91.4 °F 105.1 °F 77.0 °F 63% 30.10 in 10.0 mi NNW 5.8 mph - N/A   Scattered Clouds
12:55 PM 91.4 °F 105.1 °F 77.0 °F 63% 30.10 in 7.0 mi Calm Calm - N/A   Scattered Clouds
1:15 PM 91.4 °F 105.1 °F 77.0 °F 63% 30.09 in 10.0 mi Calm Calm - N/A   Clear
1:37 PM 91.4 °F 102.5 °F 75.2 °F 59% 30.09 in 10.0 mi Calm Calm - N/A   Clear
2:15 PM 91.4 °F 105.1 °F 77.0 °F 63% 30.07 in 10.0 mi Calm Calm - N/A   Clear
2:37 PM 93.2 °F 105.0 °F 75.2 °F 56% 30.06 in 10.0 mi Calm Calm - N/A   Scattered Clouds
2:57 PM 93.2 °F 110.2 °F 78.8 °F 63% 30.06 in 10.0 mi ENE 4.6 mph - N/A   Scattered Clouds
3:15 PM 93.2 °F 107.2 °F 77.0 °F 59% 30.06 in 10.0 mi Calm Calm - N/A   Clear
3:55 PM 93.2 °F 107.2 °F 77.0 °F 59% 30.05 in 10.0 mi NNE 4.6 mph - N/A   Clear
4:55 PM 89.6 °F 102.2 °F 77.0 °F 66% 30.05 in 10.0 mi NNE 3.5 mph - N/A   Clear
5:15 PM 89.6 °F 104.7 °F 78.8 °F 70% 30.05 in 10.0 mi Calm Calm - N/A   Clear
5:37 PM 91.4 °F 107.2 °F 78.8 °F 66% 30.05 in 7.0 mi Calm Calm - N/A   Clear
6:15 PM 87.8 °F 102.5 °F 78.8 °F 75% 30.04 in 10.0 mi SSE 3.5 mph - N/A   Clear
6:37 PM 87.8 °F 99.7 °F 77.0 °F 70% 30.05 in 10.0 mi Calm Calm - N/A   Clear
6:58 PM 84.2 °F 98.3 °F 80.6 °F 89% 30.05 in 7.0 mi Calm Calm - N/A   Clear
7:15 PM 82.4 °F 94.0 °F 80.6 °F 94% 30.05 in 7.0 mi Calm Calm - N/A   Clear
7:37 PM 80.6 °F 88.1 °F 78.8 °F 94% 30.05 in 7.0 mi Calm Calm - N/A   Clear
7:55 PM 80.6 °F 88.1 °F 78.8 °F 94% 30.05 in 7.0 mi Calm Calm - N/A   Clear
8:15 PM 80.6 °F 88.1 °F 78.8 °F 94% 30.04 in 5.0 mi Calm Calm - N/A   Clear
8:37 PM 78.8 °F - 78.8 °F 100% 30.05 in 5.0 mi Calm Calm - N/A   Clear
8:55 PM 78.8 °F - 78.8 °F 100% 30.06 in 5.0 mi Calm Calm - N/A   Clear
9:15 PM 78.8 °F - 77.0 °F 94% 30.07 in 5.0 mi Calm Calm - N/A   Clear
9:55 PM 77.0 °F - 75.2 °F 94% 30.07 in 5.0 mi Calm Calm - N/A   Clear
10:15 PM 77.0 °F - 75.2 °F 94% 30.06 in 5.0 mi Calm Calm - N/A   Clear
10:35 PM 75.2 °F - 75.2 °F 100% 30.06 in 5.0 mi Calm Calm - N/A   Clear
10:55 PM 75.2 °F - 75.2 °F 100% 30.06 in 4.0 mi Calm Calm - N/A   Clear
11:15 PM 75.2 °F - 75.2 °F 100% 30.07 in 5.0 mi Calm Calm - N/A   Clear
11:35 PM 75.2 °F - 75.2 °F 100% 30.07 in 3.0 mi NW 3.5 mph - N/A   Clear
11:55 PM 75.2 °F - 75.2 °F 100% 30.07 in 4.0 mi Calm Calm - N/A   Clear